星链-31028 (STARLINK-31028 )

导读

STARLINK-31028是美国太空探索技术公司SpaceX星链互联网卫星星座的一员,于2023年12月7日发射升空,属于星链Gen2星座,主要为全球提供低延迟、高速率的卫星互联网接入服务,该卫星运行在近地轨道,是马斯克打造全球卫星互联网络进程中的组成部分。

基本信息
目录编号:
58516
目录名称:
STARLINK-31028
国际标识:
2023-191J
轨道中心:
EARTH
卫星名称:
星链-31028
卫星全名:
星链-31028 (STARLINK-31028 )
卫星状态:
在轨 (已飞行1002 天)
发射日期:
2023-12-07 UTC
国别 :
美国 (US)
星等 :
--
轨道信息
数据来源 国际轨道数据
星历时间: 2026-09-04T02:59:32+0800
12小时前
查看轨道信息
半长轴: 6861.139km
偏心率: 0.0003111
轨道倾角: 43.009°
近地点辐角 277.405°
升交点赤经 177.273°
平近点角 82.645°
近地点: 480.867km
远地点: 485.137km
周期: 94.266分钟
每日圈数: 15.275959
详细信息
固有亮度:
5
最大亮度:
0.3
卫星平台:
Starlink v2.0 mini
覆盖范围:
全球
运营商:
太空探索技术公司
运营商所在国:
美国
制造商(研发单位):
太空探索技术公司
制造商所在国:
美国
使用方式:
暂无
卫星简介
星链(Starlink)计划是由太空探索技术公司(SpaceX)提出的一个巨型低轨卫星互联网星座项目,计划在2019年至2024年间在太空搭建由约1.2万颗卫星组成的“星链”网络,其中1584颗将部署在地球上空550千米处的近地轨道,并从2020年开始工作。该卫星仍在工作。
2D轨道图
3D轨道图
轨道高度分析图
轨道倾角分析图
轨道综合分析图
查看轨道综合分析图
交会数据列表
事件ID 空间交会对象 最接近时刻(TCA) 交会距离 交会风险概率(CRP) 交会风险指数(CRI) 操作
CDM_260904-160405-301705-851621
2026-09-04T
16:04:13+0000
0.521 km
远距离
1.554286E-4 高风险 0.79
CDM_260904-131505-560105-851622
2026-09-04T
13:15:20+0000
0.928 km
远距离
2.238132E-5 中风险 0.62
CDM_260904-202105-806005-851621
2026-09-04T
20:21:41+0000
1.041 km
极远距离
1.307059E-5 中风险 0.57
CDM_260904-114105-560105-851622
2026-09-04T
11:41:11+0000
1.215 km
极远距离
8.817194E-6 低风险 0.54
CDM_260905-085205-560105-851621
2026-09-05T
08:52:16+0000
1.431 km
极远距离
5.077789E-6 低风险 0.49
CDM_260904-184705-806005-851621
2026-09-04T
18:47:32+0000
1.403 km
极远距离
4.725081E-6 低风险 0.48
CDM_260904-215705-602805-851621
2026-09-04T
21:57:50+0000
1.408 km
极远距离
3.996676E-6 低风险 0.47
CDM_260905-071805-560105-851621
2026-09-05T
07:18:07+0000
1.584 km
极远距离
3.677194E-6 低风险 0.46
CDM_260904-144905-560105-851622
2026-09-04T
14:49:29+0000
1.689 km
极远距离
3.025893E-6 低风险 0.45
CDM_260904-202305-602805-851621
2026-09-04T
20:23:40+0000
1.779 km
极远距离
1.983679E-6 低风险 0.41